Time,TemperatureF,DewpointF,PressureIn,WindDirection,WindDirectionDegrees,WindSpeedMPH,WindSpeedGustMPH,Humidity,HourlyPrecipIn,Conditions,Clouds,dailyrainin,SoftwareType,DateUTC
2013-06-06 00:04:00,52.8,48.7,29.98,SSE,159,3.0,3.0,86,0.00,,,0.00,Wunderground v.1.15,2013-06-06 05:04:00,
2013-06-06 00:09:00,52.9,48.5,29.98,ESE,119,2.0,3.0,85,0.00,,,0.00,Wunderground v.1.15,2013-06-06 05:09:00,
2013-06-06 00:14:00,53.0,48.3,29.98,ESE,106,1.0,5.0,84,0.00,,,0.00,Wunderground v.1.15,2013-06-06 05:14:00,
2013-06-06 00:20:00,53.2,48.5,29.97,East,97,1.0,2.0,84,0.00,,,0.00,Wunderground v.1.15,2013-06-06 05:20:00,
2013-06-06 00:25:00,53.3,48.6,29.97,East,99,0.0,2.0,84,0.00,,,0.00,Wunderground v.1.15,2013-06-06 05:25:00,
2013-06-06 00:31:00,53.4,48.7,29.98,ESE,113,2.0,2.0,84,0.00,,,0.00,Wunderground v.1.15,2013-06-06 05:31:00,
2013-06-06 00:36:00,53.4,48.7,29.98,ESE,105,0.0,2.0,84,0.00,,,0.00,Wunderground v.1.15,2013-06-06 05:36:00,
2013-06-06 00:41:00,53.4,48.7,29.98,ESE,116,1.0,1.0,84,0.00,,,0.00,Wunderground v.1.15,2013-06-06 05:41:00,
2013-06-06 00:47:00,53.3,48.6,29.98,SE,143,2.0,3.0,84,0.00,,,0.00,Wunderground v.1.15,2013-06-06 05:47:00,
2013-06-06 00:52:00,53.3,48.3,29.97,SSE,148,1.0,4.0,83,0.00,,,0.00,Wunderground v.1.15,2013-06-06 05:52:00,
2013-06-06 00:57:00,53.4,48.4,29.97,SSE,153,2.0,4.0,83,0.00,,,0.00,Wunderground v.1.15,2013-06-06 05:57:00,
2013-06-06 01:02:00,53.4,48.4,29.97,SE,144,1.0,2.0,83,0.00,,,0.00,Wunderground v.1.15,2013-06-06 06:02:00,
2013-06-06 01:07:00,53.4,48.4,29.97,ESE,111,3.0,3.0,83,0.00,,,0.00,Wunderground v.1.15,2013-06-06 06:07:00,
2013-06-06 01:13:00,53.5,48.8,29.97,SE,139,0.0,2.0,84,0.00,,,0.00,Wunderground v.1.15,2013-06-06 06:13:00,
2013-06-06 01:18:00,53.5,48.5,29.97,East,97,4.0,4.0,83,0.00,,,0.00,Wunderground v.1.15,2013-06-06 06:18:00,
2013-06-06 01:23:00,53.5,48.5,29.96,ESE,118,1.0,2.0,83,0.00,,,0.00,Wunderground v.1.15,2013-06-06 06:23:00,
2013-06-06 01:29:00,53.6,48.6,29.96,SSE,147,1.0,4.0,83,0.00,,,0.00,Wunderground v.1.15,2013-06-06 06:29:00,
2013-06-06 01:35:00,53.6,48.6,29.96,SSE,153,1.0,3.0,83,0.00,,,0.00,Wunderground v.1.15,2013-06-06 06:35:00,
2013-06-06 01:40:00,53.6,48.6,29.96,SSE,147,3.0,3.0,83,0.00,,,0.00,Wunderground v.1.15,2013-06-06 06:40:00,
2013-06-06 01:45:00,53.6,48.6,29.96,SSE,165,0.0,3.0,83,0.00,,,0.00,Wunderground v.1.15,2013-06-06 06:45:00,
2013-06-06 01:50:00,53.5,48.5,29.95,SE,135,2.0,2.0,83,0.00,,,0.00,Wunderground v.1.15,2013-06-06 06:50:00,
2013-06-06 01:56:00,53.5,48.5,29.95,ESE,121,3.0,3.0,83,0.00,,,0.00,Wunderground v.1.15,2013-06-06 06:56:00,
2013-06-06 02:02:00,53.4,48.7,29.95,SE,142,1.0,3.0,84,0.00,,,0.00,Wunderground v.1.15,2013-06-06 07:02:00,
2013-06-06 02:07:00,53.4,48.7,29.95,SSE,150,4.0,6.0,84,0.00,,,0.00,Wunderground v.1.15,2013-06-06 07:07:00,
2013-06-06 02:12:00,53.4,48.7,29.95,ESE,107,3.0,5.0,84,0.00,,,0.00,Wunderground v.1.15,2013-06-06 07:12:00,
2013-06-06 02:18:00,53.5,48.5,29.95,ESE,116,1.0,5.0,83,0.00,,,0.00,Wunderground v.1.15,2013-06-06 07:18:00,
2013-06-06 02:23:00,53.4,48.7,29.94,SSE,148,0.0,3.0,84,0.00,,,0.00,Wunderground v.1.15,2013-06-06 07:23:00,
2013-06-06 02:28:00,53.4,48.7,29.94,ESE,119,1.0,5.0,84,0.00,,,0.00,Wunderground v.1.15,2013-06-06 07:28:00,
2013-06-06 02:33:00,53.5,48.8,29.95,ESE,121,1.0,4.0,84,0.00,,,0.00,Wunderground v.1.15,2013-06-06 07:33:00,
2013-06-06 02:38:00,53.5,48.8,29.94,East,101,1.0,4.0,84,0.00,,,0.00,Wunderground v.1.15,2013-06-06 07:38:00,
2013-06-06 02:43:00,53.5,48.8,29.94,SSE,159,2.0,3.0,84,0.00,,,0.00,Wunderground v.1.15,2013-06-06 07:43:00,
2013-06-06 02:49:00,53.6,48.9,29.94,SSE,161,3.0,3.0,84,0.00,,,0.00,Wunderground v.1.15,2013-06-06 07:49:00,
2013-06-06 02:54:00,53.6,48.9,29.94,East,80,4.0,4.0,84,0.00,,,0.00,Wunderground v.1.15,2013-06-06 07:54:00,
2013-06-06 03:00:00,53.6,48.9,29.94,SSE,147,0.0,2.0,84,0.00,,,0.00,Wunderground v.1.15,2013-06-06 08:00:00,
2013-06-06 03:05:00,53.7,49.0,29.94,SSE,167,6.0,6.0,84,0.00,,,0.00,Wunderground v.1.15,2013-06-06 08:05:00,
2013-06-06 03:10:00,53.6,48.9,29.94,SE,133,2.0,4.0,84,0.00,,,0.00,Wunderground v.1.15,2013-06-06 08:10:00,
2013-06-06 03:15:00,53.6,48.9,29.93,SSE,163,4.0,5.0,84,0.00,,,0.00,Wunderground v.1.15,2013-06-06 08:15:00,
2013-06-06 03:20:00,53.6,48.9,29.93,ESE,116,1.0,2.0,84,0.00,,,0.00,Wunderground v.1.15,2013-06-06 08:20:00,
2013-06-06 03:26:00,53.5,48.8,29.93,ESE,111,5.0,5.0,84,0.00,,,0.00,Wunderground v.1.15,2013-06-06 08:26:00,
2013-06-06 03:31:00,53.5,49.1,29.93,ESE,117,1.0,2.0,85,0.00,,,0.00,Wunderground v.1.15,2013-06-06 08:31:00,
2013-06-06 03:37:00,53.6,49.2,29.92,SE,142,3.0,4.0,85,0.00,,,0.00,Wunderground v.1.15,2013-06-06 08:37:00,
2013-06-06 03:42:00,53.6,49.2,29.92,SSE,154,1.0,3.0,85,0.00,,,0.00,Wunderground v.1.15,2013-06-06 08:42:00,
2013-06-06 03:47:00,53.6,49.2,29.92,SSE,147,1.0,6.0,85,0.00,,,0.00,Wunderground v.1.15,2013-06-06 08:47:00,
2013-06-06 03:52:00,53.7,49.3,29.92,SSE,150,2.0,5.0,85,0.00,,,0.00,Wunderground v.1.15,2013-06-06 08:52:00,
2013-06-06 03:57:00,53.7,49.3,29.92,SE,146,1.0,5.0,85,0.00,,,0.00,Wunderground v.1.15,2013-06-06 08:57:00,
2013-06-06 04:02:00,53.8,49.4,29.92,SSE,156,3.0,5.0,85,0.00,,,0.00,Wunderground v.1.15,2013-06-06 09:02:00,
2013-06-06 04:07:00,53.8,49.4,29.92,SSE,157,2.0,5.0,85,0.00,,,0.00,Wunderground v.1.15,2013-06-06 09:07:00,
2013-06-06 04:13:00,53.8,49.7,29.92,SSE,163,0.0,3.0,86,0.00,,,0.00,Wunderground v.1.15,2013-06-06 09:13:00,
2013-06-06 04:18:00,53.8,49.7,29.92,ESE,114,0.0,4.0,86,0.00,,,0.00,Wunderground v.1.15,2013-06-06 09:18:00,
2013-06-06 04:23:00,53.8,49.7,29.93,SSE,165,4.0,5.0,86,0.00,,,0.00,Wunderground v.1.15,2013-06-06 09:23:00,
2013-06-06 04:28:00,53.9,49.8,29.93,ESE,122,1.0,5.0,86,0.00,,,0.00,Wunderground v.1.15,2013-06-06 09:28:00,
2013-06-06 04:34:00,53.9,49.8,29.92,ESE,105,0.0,3.0,86,0.00,,,0.00,Wunderground v.1.15,2013-06-06 09:34:00,
2013-06-06 04:39:00,53.9,49.8,29.92,ESE,121,2.0,4.0,86,0.00,,,0.00,Wunderground v.1.15,2013-06-06 09:39:00,
2013-06-06 04:44:00,53.9,49.8,29.92,ESE,104,0.0,3.0,86,0.00,,,0.00,Wunderground v.1.15,2013-06-06 09:44:00,
2013-06-06 04:49:00,53.9,49.8,29.92,ESE,119,0.0,3.0,86,0.00,,,0.00,Wunderground v.1.15,2013-06-06 09:49:00,
2013-06-06 04:54:00,53.9,49.8,29.92,ESE,112,0.0,3.0,86,0.00,,,0.00,Wunderground v.1.15,2013-06-06 09:54:00,
2013-06-06 05:00:00,53.9,49.8,29.93,SE,129,1.0,1.0,86,0.00,,,0.00,Wunderground v.1.15,2013-06-06 10:00:00,
2013-06-06 05:05:00,54.0,49.9,29.93,ESE,119,0.0,2.0,86,0.00,,,0.00,Wunderground v.1.15,2013-06-06 10:05:00,
2013-06-06 05:10:00,54.0,49.9,29.93,East,88,0.0,1.0,86,0.00,,,0.00,Wunderground v.1.15,2013-06-06 10:10:00,
2013-06-06 05:16:00,54.1,50.3,29.93,East,88,0.0,1.0,87,0.00,,,0.00,Wunderground v.1.15,2013-06-06 10:16:00,
2013-06-06 05:21:00,54.1,50.3,29.93,East,88,0.0,1.0,87,0.00,,,0.00,Wunderground v.1.15,2013-06-06 10:21:00,
2013-06-06 05:26:00,54.2,50.4,29.93,ESE,114,4.0,4.0,87,0.00,,,0.00,Wunderground v.1.15,2013-06-06 10:26:00,
2013-06-06 05:31:00,54.2,50.4,29.93,ENE,76,3.0,3.0,87,0.00,,,0.00,Wunderground v.1.15,2013-06-06 10:31:00,
2013-06-06 05:36:00,54.2,50.4,29.93,East,97,2.0,4.0,87,0.00,,,0.00,Wunderground v.1.15,2013-06-06 10:36:00,
2013-06-06 05:41:00,54.1,50.6,29.93,East,80,2.0,4.0,88,0.00,,,0.00,Wunderground v.1.15,2013-06-06 10:41:00,
2013-06-06 05:46:00,54.0,50.5,29.94,NE,51,0.0,4.0,88,0.00,,,0.00,Wunderground v.1.15,2013-06-06 10:46:00,
2013-06-06 05:51:00,54.0,50.8,29.94,North,5,2.0,3.0,89,0.00,,,0.00,Wunderground v.1.15,2013-06-06 10:51:00,
2013-06-06 05:56:00,53.9,50.7,29.94,NE,36,5.0,5.0,89,0.00,,,0.00,Wunderground v.1.15,2013-06-06 10:56:00,
2013-06-06 06:01:00,53.5,50.3,29.94,NNE,28,2.0,3.0,89,0.00,,,0.01,Wunderground v.1.15,2013-06-06 11:01:00,
2013-06-06 06:06:00,53.3,50.1,29.94,NE,34,0.0,3.0,89,0.00,,,0.01,Wunderground v.1.15,2013-06-06 11:06:00,
2013-06-06 06:11:00,53.1,50.2,29.94,NE,36,2.0,2.0,90,0.04,,,0.01,Wunderground v.1.15,2013-06-06 11:11:00,
2013-06-06 06:17:00,53.0,50.1,29.94,NE,55,0.0,3.0,90,0.04,,,0.02,Wunderground v.1.15,2013-06-06 11:17:00,
2013-06-06 06:22:00,52.9,50.3,29.94,NE,55,0.0,1.0,91,0.04,,,0.02,Wunderground v.1.15,2013-06-06 11:22:00,
2013-06-06 06:27:00,52.9,50.3,29.94,NE,55,1.0,1.0,91,0.04,,,0.02,Wunderground v.1.15,2013-06-06 11:27:00,
2013-06-06 06:32:00,52.9,50.3,29.94,NE,42,1.0,2.0,91,0.00,,,0.02,Wunderground v.1.15,2013-06-06 11:32:00,
2013-06-06 06:37:00,53.1,50.5,29.94,ENE,75,1.0,4.0,91,0.00,,,0.02,Wunderground v.1.15,2013-06-06 11:37:00,
2013-06-06 06:42:00,53.2,50.9,29.93,NNE,30,0.0,4.0,92,0.00,,,0.02,Wunderground v.1.15,2013-06-06 11:42:00,
2013-06-06 06:47:00,53.3,51.0,29.94,ENE,64,3.0,4.0,92,0.00,,,0.02,Wunderground v.1.15,2013-06-06 11:47:00,
2013-06-06 06:52:00,53.3,51.0,29.94,NE,53,0.0,3.0,92,0.00,,,0.02,Wunderground v.1.15,2013-06-06 11:52:00,
2013-06-06 06:57:00,53.4,51.1,29.94,ENE,77,0.0,4.0,92,0.00,,,0.02,Wunderground v.1.15,2013-06-06 11:57:00,
2013-06-06 07:03:00,53.4,51.1,29.94,ESE,112,4.0,4.0,92,0.00,,,0.02,Wunderground v.1.15,2013-06-06 12:03:00,
2013-06-06 07:08:00,53.4,51.1,29.94,East,92,1.0,4.0,92,0.00,,,0.02,Wunderground v.1.15,2013-06-06 12:08:00,
2013-06-06 07:13:00,53.4,51.1,29.94,ENE,62,1.0,4.0,92,0.00,,,0.02,Wunderground v.1.15,2013-06-06 12:13:00,
2013-06-06 07:18:00,53.4,51.1,29.94,ESE,106,2.0,4.0,92,0.00,,,0.02,Wunderground v.1.15,2013-06-06 12:18:00,
2013-06-06 07:23:00,53.4,51.1,29.94,ENE,74,3.0,6.0,92,0.00,,,0.02,Wunderground v.1.15,2013-06-06 12:23:00,
2013-06-06 07:28:00,53.4,51.1,29.94,ENE,63,0.0,6.0,92,0.00,,,0.02,Wunderground v.1.15,2013-06-06 12:28:00,
2013-06-06 07:34:00,53.4,51.1,29.94,East,87,2.0,2.0,92,0.00,,,0.02,Wunderground v.1.15,2013-06-06 12:34:00,
2013-06-06 07:39:00,53.3,50.7,29.94,ENE,78,1.0,6.0,91,0.00,,,0.02,Wunderground v.1.15,2013-06-06 12:39:00,
2013-06-06 07:45:00,53.3,50.7,29.94,East,94,1.0,4.0,91,0.00,,,0.02,Wunderground v.1.15,2013-06-06 12:45:00,
2013-06-06 07:50:00,53.3,50.7,29.95,ENE,69,5.0,5.0,91,0.00,,,0.02,Wunderground v.1.15,2013-06-06 12:50:00,
2013-06-06 07:56:00,53.3,50.7,29.95,ENE,74,3.0,3.0,91,0.00,,,0.02,Wunderground v.1.15,2013-06-06 12:56:00,
2013-06-06 08:01:00,53.3,50.7,29.95,SE,125,3.0,3.0,91,0.00,,,0.02,Wunderground v.1.15,2013-06-06 13:01:00,
2013-06-06 08:06:00,53.3,50.7,29.95,ENE,76,2.0,5.0,91,0.00,,,0.02,Wunderground v.1.15,2013-06-06 13:06:00,
2013-06-06 08:12:00,53.3,50.7,29.95,East,84,2.0,4.0,91,0.00,,,0.02,Wunderground v.1.15,2013-06-06 13:12:00,
2013-06-06 08:17:00,53.4,51.1,29.95,East,81,2.0,4.0,92,0.00,,,0.02,Wunderground v.1.15,2013-06-06 13:17:00,
2013-06-06 08:22:00,53.4,51.1,29.95,ESE,105,2.0,4.0,92,0.00,,,0.02,Wunderground v.1.15,2013-06-06 13:22:00,
2013-06-06 08:27:00,53.5,51.2,29.95,East,87,2.0,4.0,92,0.00,,,0.02,Wunderground v.1.15,2013-06-06 13:27:00,
2013-06-06 08:32:00,53.5,51.2,29.95,East,100,0.0,2.0,92,0.00,,,0.02,Wunderground v.1.15,2013-06-06 13:32:00,
2013-06-06 08:37:00,53.6,51.3,29.95,East,99,0.0,2.0,92,0.00,,,0.02,Wunderground v.1.15,2013-06-06 13:37:00,
2013-06-06 08:42:00,53.6,51.3,29.95,East,84,2.0,2.0,92,0.00,,,0.02,Wunderground v.1.15,2013-06-06 13:42:00,
2013-06-06 08:48:00,53.7,51.4,29.95,East,93,0.0,5.0,92,0.00,,,0.02,Wunderground v.1.15,2013-06-06 13:48:00,
2013-06-06 08:53:00,53.7,51.4,29.96,East,92,0.0,1.0,92,0.00,,,0.02,Wunderground v.1.15,2013-06-06 13:53:00,
2013-06-06 08:58:00,53.9,51.6,29.96,ENE,76,3.0,3.0,92,0.00,,,0.02,Wunderground v.1.15,2013-06-06 13:58:00,
2013-06-06 09:03:00,53.9,51.3,29.97,East,84,0.0,3.0,91,0.00,,,0.02,Wunderground v.1.15,2013-06-06 14:03:00,
2013-06-06 09:08:00,54.0,51.4,29.96,ENE,73,1.0,3.0,91,0.00,,,0.02,Wunderground v.1.15,2013-06-06 14:08:00,
2013-06-06 09:14:00,54.2,51.9,29.96,East,89,0.0,4.0,92,0.00,,,0.02,Wunderground v.1.15,2013-06-06 14:14:00,
2013-06-06 09:19:00,54.3,51.7,29.97,ENE,71,1.0,4.0,91,0.00,,,0.02,Wunderground v.1.15,2013-06-06 14:19:00,
2013-06-06 09:25:00,54.3,51.7,29.97,ENE,64,4.0,4.0,91,0.00,,,0.02,Wunderground v.1.15,2013-06-06 14:25:00,
2013-06-06 09:30:00,54.2,51.6,29.97,ENE,74,2.0,3.0,91,0.00,,,0.02,Wunderground v.1.15,2013-06-06 14:30:00,
2013-06-06 09:35:00,54.3,52.0,29.96,SSE,152,3.0,3.0,92,0.00,,,0.02,Wunderground v.1.15,2013-06-06 14:35:00,
2013-06-06 09:40:00,54.2,51.9,29.97,East,87,0.0,2.0,92,0.00,,,0.02,Wunderground v.1.15,2013-06-06 14:40:00,
2013-06-06 09:45:00,54.2,51.9,29.97,East,80,0.0,4.0,92,0.00,,,0.02,Wunderground v.1.15,2013-06-06 14:45:00,
2013-06-06 09:50:00,54.3,52.0,29.97,East,98,2.0,2.0,92,0.00,,,0.02,Wunderground v.1.15,2013-06-06 14:50:00,
2013-06-06 09:55:00,54.4,52.1,29.97,East,80,0.0,3.0,92,0.00,,,0.02,Wunderground v.1.15,2013-06-06 14:55:00,
2013-06-06 10:00:00,54.5,52.2,29.97,East,81,1.0,1.0,92,0.00,,,0.02,Wunderground v.1.15,2013-06-06 15:00:00,
2013-06-06 10:05:00,54.6,52.3,29.97,ESE,123,2.0,4.0,92,0.00,,,0.02,Wunderground v.1.15,2013-06-06 15:05:00,
2013-06-06 10:10:00,54.7,52.4,29.97,East,99,3.0,3.0,92,0.00,,,0.02,Wunderground v.1.15,2013-06-06 15:10:00,
2013-06-06 10:15:00,54.7,52.4,29.97,ESE,123,4.0,5.0,92,0.00,,,0.02,Wunderground v.1.15,2013-06-06 15:15:00,
2013-06-06 10:20:00,54.6,52.0,29.97,ESE,119,2.0,3.0,91,0.00,,,0.02,Wunderground v.1.15,2013-06-06 15:20:00,
2013-06-06 10:25:00,54.6,52.0,29.97,East,95,4.0,6.0,91,0.00,,,0.02,Wunderground v.1.15,2013-06-06 15:25:00,
2013-06-06 10:30:00,54.5,51.9,29.97,ESE,108,2.0,3.0,91,0.00,,,0.02,Wunderground v.1.15,2013-06-06 15:30:00,
2013-06-06 10:35:00,54.5,51.9,29.97,East,92,4.0,6.0,91,0.00,,,0.02,Wunderground v.1.15,2013-06-06 15:35:00,
2013-06-06 10:40:00,54.6,52.0,29.97,East,92,2.0,2.0,91,0.00,,,0.02,Wunderground v.1.15,2013-06-06 15:40:00,
2013-06-06 10:45:00,54.8,52.5,29.97,ESE,102,1.0,6.0,92,0.00,,,0.02,Wunderground v.1.15,2013-06-06 15:45:00,
2013-06-06 10:50:00,55.0,52.4,29.97,SE,125,3.0,4.0,91,0.00,,,0.02,Wunderground v.1.15,2013-06-06 15:50:00,
2013-06-06 10:55:00,55.0,52.4,29.97,ENE,69,4.0,5.0,91,0.00,,,0.02,Wunderground v.1.15,2013-06-06 15:55:00,
2013-06-06 11:00:00,55.2,52.6,29.97,East,91,1.0,3.0,91,0.00,,,0.02,Wunderground v.1.15,2013-06-06 16:00:00,
2013-06-06 11:06:00,55.4,52.5,29.97,East,98,4.0,4.0,90,0.00,,,0.02,Wunderground v.1.15,2013-06-06 16:06:00,
2013-06-06 11:11:00,55.4,52.5,29.97,ENE,73,1.0,3.0,90,0.00,,,0.02,Wunderground v.1.15,2013-06-06 16:11:00,
2013-06-06 11:16:00,55.6,52.7,29.97,ESE,114,2.0,6.0,90,0.00,,,0.02,Wunderground v.1.15,2013-06-06 16:16:00,
2013-06-06 11:22:00,55.7,52.5,29.97,ESE,103,2.0,3.0,89,0.00,,,0.02,Wunderground v.1.15,2013-06-06 16:22:00,
2013-06-06 11:27:00,55.8,52.6,29.97,ESE,114,2.0,4.0,89,0.00,,,0.02,Wunderground v.1.15,2013-06-06 16:27:00,
2013-06-06 11:32:00,55.8,52.3,29.96,East,94,3.0,6.0,88,0.00,,,0.02,Wunderground v.1.15,2013-06-06 16:32:00,
2013-06-06 11:37:00,55.9,52.7,29.96,East,82,2.0,6.0,89,0.00,,,0.02,Wunderground v.1.15,2013-06-06 16:37:00,
2013-06-06 11:42:00,55.9,52.4,29.96,ESE,103,2.0,8.0,88,0.00,,,0.02,Wunderground v.1.15,2013-06-06 16:42:00,
2013-06-06 11:47:00,56.0,52.5,29.97,ESE,103,2.0,11.0,88,0.00,,,0.02,Wunderground v.1.15,2013-06-06 16:47:00,
2013-06-06 11:52:00,55.9,52.4,29.97,East,98,1.0,9.0,88,0.00,,,0.02,Wunderground v.1.15,2013-06-06 16:52:00,
2013-06-06 11:57:00,56.1,52.6,29.97,ESE,103,4.0,9.0,88,0.00,,,0.02,Wunderground v.1.15,2013-06-06 16:57:00,
2013-06-06 12:02:00,56.3,52.8,29.97,ESE,113,3.0,5.0,88,0.00,,,0.02,Wunderground v.1.15,2013-06-06 17:02:00,
2013-06-06 12:08:00,56.4,52.9,29.96,ESE,120,0.0,5.0,88,0.00,,,0.02,Wunderground v.1.15,2013-06-06 17:08:00,
2013-06-06 12:13:00,56.3,52.5,29.96,ESE,111,3.0,6.0,87,0.00,,,0.02,Wunderground v.1.15,2013-06-06 17:13:00,
2013-06-06 12:18:00,56.0,51.9,29.96,ESE,117,4.0,9.0,86,0.00,,,0.02,Wunderground v.1.15,2013-06-06 17:18:00,
2013-06-06 12:23:00,55.9,52.1,29.96,East,87,1.0,8.0,87,0.00,,,0.02,Wunderground v.1.15,2013-06-06 17:23:00,
2013-06-06 12:28:00,55.9,52.1,29.96,ENE,64,2.0,8.0,87,0.00,,,0.02,Wunderground v.1.15,2013-06-06 17:28:00,
2013-06-06 12:34:00,55.9,52.1,29.96,ENE,78,3.0,6.0,87,0.00,,,0.02,Wunderground v.1.15,2013-06-06 17:34:00,
2013-06-06 12:39:00,55.7,51.9,29.96,East,95,3.0,6.0,87,0.00,,,0.02,Wunderground v.1.15,2013-06-06 17:39:00,
2013-06-06 12:44:00,55.6,51.8,29.96,ESE,111,2.0,6.0,87,0.00,,,0.02,Wunderground v.1.15,2013-06-06 17:44:00,
2013-06-06 12:49:00,55.6,51.8,29.96,ENE,69,2.0,6.0,87,0.00,,,0.02,Wunderground v.1.15,2013-06-06 17:49:00,
2013-06-06 12:54:00,55.6,51.8,29.96,East,97,1.0,5.0,87,0.00,,,0.02,Wunderground v.1.15,2013-06-06 17:54:00,
2013-06-06 12:59:00,55.8,52.3,29.96,NE,49,1.0,5.0,88,0.00,,,0.02,Wunderground v.1.15,2013-06-06 17:59:00,
2013-06-06 13:05:00,56.0,52.5,29.95,NE,43,2.0,4.0,88,0.00,,,0.02,Wunderground v.1.15,2013-06-06 18:05:00,
2013-06-06 13:10:00,56.4,52.9,29.95,East,90,4.0,5.0,88,0.00,,,0.02,Wunderground v.1.15,2013-06-06 18:10:00,
2013-06-06 13:15:00,56.5,52.4,29.95,East,98,2.0,6.0,86,0.00,,,0.02,Wunderground v.1.15,2013-06-06 18:15:00,
2013-06-06 13:20:00,56.6,52.8,29.95,East,84,1.0,3.0,87,0.00,,,0.02,Wunderground v.1.15,2013-06-06 18:20:00,
2013-06-06 13:25:00,56.7,52.6,29.95,ENE,78,2.0,5.0,86,0.00,,,0.02,Wunderground v.1.15,2013-06-06 18:25:00,
2013-06-06 13:30:00,56.9,52.8,29.95,SE,142,3.0,3.0,86,0.00,,,0.02,Wunderground v.1.15,2013-06-06 18:30:00,
2013-06-06 13:35:00,56.9,52.4,29.95,SE,138,0.0,7.0,85,0.00,,,0.02,Wunderground v.1.15,2013-06-06 18:35:00,
2013-06-06 13:40:00,57.0,52.5,29.95,ESE,110,2.0,2.0,85,0.00,,,0.02,Wunderground v.1.15,2013-06-06 18:40:00,
2013-06-06 13:45:00,57.0,52.5,29.94,ENE,67,2.0,6.0,85,0.00,,,0.02,Wunderground v.1.15,2013-06-06 18:45:00,
2013-06-06 13:50:00,57.1,52.0,29.94,East,79,4.0,4.0,83,0.00,,,0.02,Wunderground v.1.15,2013-06-06 18:50:00,
2013-06-06 13:55:00,57.3,52.2,29.94,East,82,6.0,7.0,83,0.00,,,0.02,Wunderground v.1.15,2013-06-06 18:55:00,
2013-06-06 14:00:00,57.2,51.4,29.94,East,98,4.0,4.0,81,0.00,,,0.02,Wunderground v.1.15,2013-06-06 19:00:00,
2013-06-06 14:05:00,57.3,51.9,29.94,East,86,4.0,6.0,82,0.00,,,0.02,Wunderground v.1.15,2013-06-06 19:05:00,
2013-06-06 14:12:00,57.4,51.9,29.95,ENE,71,3.0,3.0,82,0.00,,,0.02,Wunderground v.1.15,2013-06-06 19:12:00,
2013-06-06 14:17:00,57.3,51.2,29.95,East,86,5.0,7.0,80,0.00,,,0.02,Wunderground v.1.15,2013-06-06 19:17:00,
2013-06-06 14:22:00,57.1,51.0,29.94,ESE,109,3.0,7.0,80,0.00,,,0.02,Wunderground v.1.15,2013-06-06 19:22:00,
2013-06-06 14:27:00,57.2,51.1,29.94,SE,124,1.0,10.0,80,0.00,,,0.02,Wunderground v.1.15,2013-06-06 19:27:00,
2013-06-06 14:32:00,57.2,51.4,29.94,ESE,105,4.0,4.0,81,0.00,,,0.02,Wunderground v.1.15,2013-06-06 19:32:00,
2013-06-06 14:34:00,57.3,51.9,29.94,East,98,5.0,6.0,82,0.00,,,0.02,Wunderground v.1.15,2013-06-06 19:34:00,
2013-06-06 14:39:00,57.3,51.5,29.94,East,98,0.0,6.0,81,0.00,,,0.02,Wunderground v.1.15,2013-06-06 19:39:00,
2013-06-06 14:45:00,57.5,51.7,29.94,ESE,106,2.0,6.0,81,0.00,,,0.02,Wunderground v.1.15,2013-06-06 19:45:00,
2013-06-06 14:50:00,57.5,51.7,29.94,NE,55,1.0,1.0,81,0.00,,,0.02,Wunderground v.1.15,2013-06-06 19:50:00,
2013-06-06 14:55:00,57.6,51.5,29.94,ENE,61,0.0,4.0,80,0.00,,,0.02,Wunderground v.1.15,2013-06-06 19:55:00,
2013-06-06 15:00:00,57.5,51.4,29.94,East,96,4.0,4.0,80,0.00,,,0.02,Wunderground v.1.15,2013-06-06 20:00:00,
2013-06-06 15:05:00,57.6,51.5,29.94,ENE,74,1.0,4.0,80,0.00,,,0.02,Wunderground v.1.15,2013-06-06 20:05:00,
2013-06-06 15:10:00,57.8,51.7,29.94,ESE,120,2.0,2.0,80,0.00,,,0.02,Wunderground v.1.15,2013-06-06 20:10:00,
2013-06-06 15:16:00,57.9,51.1,29.94,ESE,109,1.0,7.0,78,0.00,,,0.02,Wunderground v.1.15,2013-06-06 20:16:00,
2013-06-06 15:21:00,58.0,51.2,29.95,East,86,5.0,5.0,78,0.00,,,0.02,Wunderground v.1.15,2013-06-06 20:21:00,
2013-06-06 15:26:00,58.1,51.3,29.95,East,86,4.0,7.0,78,0.00,,,0.02,Wunderground v.1.15,2013-06-06 20:26:00,
2013-06-06 15:31:00,58.6,52.4,29.95,SE,136,0.0,6.0,80,0.00,,,0.02,Wunderground v.1.15,2013-06-06 20:31:00,
2013-06-06 15:36:00,58.8,52.3,29.95,East,88,2.0,6.0,79,0.00,,,0.02,Wunderground v.1.15,2013-06-06 20:36:00,
2013-06-06 15:41:00,58.9,52.1,29.94,ESE,121,4.0,4.0,78,0.00,,,0.02,Wunderground v.1.15,2013-06-06 20:41:00,
2013-06-06 15:46:00,58.9,52.4,29.95,East,82,3.0,4.0,79,0.00,,,0.02,Wunderground v.1.15,2013-06-06 20:46:00,
2013-06-06 15:51:00,58.9,52.7,29.95,ESE,105,2.0,4.0,80,0.00,,,0.02,Wunderground v.1.15,2013-06-06 20:51:00,
2013-06-06 15:56:00,58.9,52.7,29.95,ENE,77,2.0,4.0,80,0.00,,,0.02,Wunderground v.1.15,2013-06-06 20:56:00,
2013-06-06 16:01:00,59.0,52.8,29.95,ENE,67,2.0,2.0,80,0.00,,,0.02,Wunderground v.1.15,2013-06-06 21:01:00,
2013-06-06 16:07:00,59.0,53.2,29.95,East,93,1.0,4.0,81,0.00,,,0.02,Wunderground v.1.15,2013-06-06 21:07:00,
2013-06-06 16:12:00,59.1,53.3,29.95,East,87,2.0,4.0,81,0.00,,,0.02,Wunderground v.1.15,2013-06-06 21:12:00,
2013-06-06 16:17:00,59.0,52.8,29.95,ENE,59,0.0,5.0,80,0.00,,,0.02,Wunderground v.1.15,2013-06-06 21:17:00,
2013-06-06 16:22:00,59.1,53.3,29.95,ENE,66,0.0,2.0,81,0.00,,,0.02,Wunderground v.1.15,2013-06-06 21:22:00,
2013-06-06 16:27:00,59.2,53.4,29.95,ENE,78,3.0,3.0,81,0.00,,,0.02,Wunderground v.1.15,2013-06-06 21:27:00,
2013-06-06 16:32:00,59.1,53.3,29.95,East,93,2.0,3.0,81,0.00,,,0.02,Wunderground v.1.15,2013-06-06 21:32:00,
2013-06-06 16:37:00,59.1,53.6,29.95,East,94,2.0,3.0,82,0.00,,,0.02,Wunderground v.1.15,2013-06-06 21:37:00,
2013-06-06 16:42:00,59.1,53.3,29.94,SE,138,0.0,3.0,81,0.00,,,0.02,Wunderground v.1.15,2013-06-06 21:42:00,
2013-06-06 16:47:00,59.2,53.7,29.94,ENE,61,2.0,3.0,82,0.00,,,0.02,Wunderground v.1.15,2013-06-06 21:47:00,
2013-06-06 16:52:00,59.0,53.2,29.95,ENE,64,0.0,3.0,81,0.00,,,0.02,Wunderground v.1.15,2013-06-06 21:52:00,
2013-06-06 16:58:00,59.0,53.5,29.95,ENE,76,1.0,3.0,82,0.00,,,0.02,Wunderground v.1.15,2013-06-06 21:58:00,
2013-06-06 17:04:00,58.9,53.4,29.95,ENE,76,0.0,2.0,82,0.00,,,0.02,Wunderground v.1.15,2013-06-06 22:04:00,
2013-06-06 17:09:00,58.9,53.4,29.95,ENE,76,0.0,2.0,82,0.00,,,0.02,Wunderground v.1.15,2013-06-06 22:09:00,
2013-06-06 17:14:00,58.9,53.4,29.95,East,80,0.0,2.0,82,0.00,,,0.02,Wunderground v.1.15,2013-06-06 22:14:00,
2013-06-06 17:19:00,58.9,53.4,29.95,East,80,1.0,2.0,82,0.00,,,0.02,Wunderground v.1.15,2013-06-06 22:19:00,
2013-06-06 17:25:00,58.9,53.4,29.95,SE,134,0.0,3.0,82,0.00,,,0.02,Wunderground v.1.15,2013-06-06 22:25:00,
2013-06-06 17:30:00,58.9,53.4,29.95,East,101,1.0,1.0,82,0.00,,,0.02,Wunderground v.1.15,2013-06-06 22:30:00,
2013-06-06 17:35:00,58.9,53.4,29.95,ESE,111,2.0,3.0,82,0.00,,,0.02,Wunderground v.1.15,2013-06-06 22:35:00,
2013-06-06 17:41:00,58.9,53.4,29.95,East,79,1.0,1.0,82,0.00,,,0.02,Wunderground v.1.15,2013-06-06 22:41:00,
2013-06-06 17:46:00,58.9,53.7,29.95,East,81,0.0,3.0,83,0.00,,,0.02,Wunderground v.1.15,2013-06-06 22:46:00,
2013-06-06 17:51:00,58.9,53.7,29.95,NE,53,2.0,2.0,83,0.00,,,0.02,Wunderground v.1.15,2013-06-06 22:51:00,
2013-06-06 17:56:00,58.9,53.7,29.95,ESE,116,0.0,3.0,83,0.00,,,0.02,Wunderground v.1.15,2013-06-06 22:56:00,
2013-06-06 18:02:00,58.9,53.7,29.94,ENE,73,3.0,3.0,83,0.00,,,0.02,Wunderground v.1.15,2013-06-06 23:02:00,
2013-06-06 18:07:00,58.9,53.7,29.95,ENE,63,1.0,3.0,83,0.00,,,0.02,Wunderground v.1.15,2013-06-06 23:07:00,
2013-06-06 18:12:00,58.9,53.7,29.94,ENE,63,1.0,2.0,83,0.00,,,0.02,Wunderground v.1.15,2013-06-06 23:12:00,
2013-06-06 18:17:00,58.9,53.7,29.94,ESE,107,2.0,3.0,83,0.00,,,0.02,Wunderground v.1.15,2013-06-06 23:17:00,
2013-06-06 18:22:00,58.9,53.7,29.95,East,101,0.0,1.0,83,0.00,,,0.02,Wunderground v.1.15,2013-06-06 23:22:00,
2013-06-06 18:27:00,58.9,53.7,29.94,East,86,0.0,2.0,83,0.00,,,0.02,Wunderground v.1.15,2013-06-06 23:27:00,
2013-06-06 18:32:00,59.0,53.8,29.94,East,86,0.0,1.0,83,0.00,,,0.02,Wunderground v.1.15,2013-06-06 23:32:00,
2013-06-06 18:38:00,59.1,53.9,29.94,East,86,1.0,2.0,83,0.00,,,0.02,Wunderground v.1.15,2013-06-06 23:38:00,
2013-06-06 18:43:00,59.2,54.4,29.94,East,88,3.0,3.0,84,0.00,,,0.02,Wunderground v.1.15,2013-06-06 23:43:00,
2013-06-06 18:48:00,59.3,54.5,29.94,ENE,64,3.0,4.0,84,0.00,,,0.02,Wunderground v.1.15,2013-06-06 23:48:00,
2013-06-06 18:53:00,59.4,54.2,29.94,ENE,64,0.0,3.0,83,0.00,,,0.02,Wunderground v.1.15,2013-06-06 23:53:00,
2013-06-06 18:58:00,59.5,54.3,29.95,ENE,65,0.0,3.0,83,0.00,,,0.02,Wunderground v.1.15,2013-06-06 23:58:00,
2013-06-06 19:04:00,59.5,54.3,29.95,East,85,0.0,3.0,83,0.00,,,0.02,Wunderground v.1.15,2013-06-07 00:04:00,
2013-06-06 19:09:00,59.5,54.3,29.95,NE,55,0.0,3.0,83,0.00,,,0.02,Wunderground v.1.15,2013-06-07 00:09:00,
2013-06-06 19:14:00,59.5,54.3,29.95,ENE,66,0.0,2.0,83,0.00,,,0.02,Wunderground v.1.15,2013-06-07 00:14:00,
2013-06-06 19:19:00,59.5,54.7,29.95,ENE,66,0.0,2.0,84,0.00,,,0.02,Wunderground v.1.15,2013-06-07 00:19:00,
2013-06-06 19:25:00,59.4,54.6,29.95,ENE,67,0.0,1.0,84,0.00,,,0.02,Wunderground v.1.15,2013-06-07 00:25:00,
2013-06-06 19:30:00,59.3,54.5,29.95,ESE,111,1.0,1.0,84,0.00,,,0.02,Wunderground v.1.15,2013-06-07 00:30:00,
2013-06-06 19:35:00,59.1,53.9,29.95,ESE,109,2.0,5.0,83,0.00,,,0.02,Wunderground v.1.15,2013-06-07 00:35:00,
2013-06-06 19:40:00,58.9,53.7,29.96,East,97,2.0,3.0,83,0.00,,,0.02,Wunderground v.1.15,2013-06-07 00:40:00,
2013-06-06 19:45:00,58.6,53.5,29.96,ESE,102,0.0,3.0,83,0.00,,,0.02,Wunderground v.1.15,2013-06-07 00:45:00,
2013-06-06 19:51:00,58.4,53.6,29.96,ESE,115,1.0,2.0,84,0.00,,,0.02,Wunderground v.1.15,2013-06-07 00:51:00,
2013-06-06 19:56:00,58.1,53.3,29.96,ESE,123,0.0,4.0,84,0.00,,,0.02,Wunderground v.1.15,2013-06-07 00:56:00,
2013-06-06 20:01:00,57.8,53.0,29.96,ESE,114,1.0,2.0,84,0.00,,,0.02,Wunderground v.1.15,2013-06-07 01:01:00,
2013-06-06 20:06:00,57.6,52.8,29.96,ESE,109,3.0,5.0,84,0.00,,,0.02,Wunderground v.1.15,2013-06-07 01:06:00,
2013-06-06 20:11:00,57.3,52.5,29.96,SE,135,0.0,2.0,84,0.00,,,0.02,Wunderground v.1.15,2013-06-07 01:11:00,
2013-06-06 20:17:00,57.2,52.7,29.96,SE,124,1.0,3.0,85,0.00,,,0.02,Wunderground v.1.15,2013-06-07 01:17:00,
2013-06-06 20:22:00,57.0,52.2,29.96,ESE,111,0.0,1.0,84,0.00,,,0.02,Wunderground v.1.15,2013-06-07 01:22:00,
2013-06-06 20:27:00,56.8,52.3,29.96,ESE,111,0.0,2.0,85,0.00,,,0.02,Wunderground v.1.15,2013-06-07 01:27:00,
2013-06-06 20:32:00,56.8,52.3,29.96,ESE,111,0.0,0.0,85,0.00,,,0.02,Wunderground v.1.15,2013-06-07 01:32:00,
2013-06-06 20:37:00,56.7,52.2,29.96,ESE,111,0.0,0.0,85,0.00,,,0.02,Wunderground v.1.15,2013-06-07 01:37:00,
2013-06-06 20:42:00,56.6,52.5,29.96,ESE,111,0.0,2.0,86,0.00,,,0.02,Wunderground v.1.15,2013-06-07 01:42:00,
2013-06-06 20:47:00,56.5,52.4,29.96,ESE,111,0.0,2.0,86,0.00,,,0.02,Wunderground v.1.15,2013-06-07 01:47:00,
2013-06-06 20:52:00,56.6,52.5,29.96,ESE,111,0.0,0.0,86,0.00,,,0.02,Wunderground v.1.15,2013-06-07 01:52:00,
2013-06-06 20:57:00,56.6,52.5,29.96,ENE,61,1.0,2.0,86,0.00,,,0.02,Wunderground v.1.15,2013-06-07 01:57:00,
2013-06-06 21:02:00,56.6,52.5,29.96,ENE,61,0.0,2.0,86,0.00,,,0.02,Wunderground v.1.15,2013-06-07 02:02:00,
2013-06-06 21:07:00,56.6,52.8,29.96,ENE,61,0.0,2.0,87,0.00,,,0.02,Wunderground v.1.15,2013-06-07 02:07:00,
2013-06-06 21:12:00,56.7,52.9,29.96,East,83,2.0,2.0,87,0.00,,,0.02,Wunderground v.1.15,2013-06-07 02:12:00,
2013-06-06 21:17:00,56.8,53.0,29.96,ENE,57,0.0,4.0,87,0.00,,,0.02,Wunderground v.1.15,2013-06-07 02:17:00,
2013-06-06 21:22:00,56.8,53.0,29.96,East,92,0.0,5.0,87,0.00,,,0.02,Wunderground v.1.15,2013-06-07 02:22:00,
2013-06-06 21:28:00,56.8,52.7,29.96,NE,56,2.0,5.0,86,0.00,,,0.02,Wunderground v.1.15,2013-06-07 02:28:00,
2013-06-06 21:34:00,56.8,51.7,29.96,ENE,58,3.0,5.0,83,0.00,,,0.02,Wunderground v.1.15,2013-06-07 02:34:00,
2013-06-06 21:39:00,56.7,50.9,29.96,NE,36,1.0,5.0,81,0.00,,,0.02,Wunderground v.1.15,2013-06-07 02:39:00,
2013-06-06 21:44:00,56.7,50.9,29.96,NNE,25,2.0,4.0,81,0.00,,,0.02,Wunderground v.1.15,2013-06-07 02:44:00,
2013-06-06 21:49:00,56.6,50.5,29.96,ENE,65,1.0,6.0,80,0.00,,,0.02,Wunderground v.1.15,2013-06-07 02:49:00,
2013-06-06 21:54:00,56.6,50.2,29.96,NE,39,1.0,5.0,79,0.00,,,0.02,Wunderground v.1.15,2013-06-07 02:54:00,
2013-06-06 22:00:00,56.6,50.5,29.96,NNE,22,0.0,1.0,80,0.00,,,0.02,Wunderground v.1.15,2013-06-07 03:00:00,
2013-06-06 22:06:00,56.4,50.0,29.96,North,360,1.0,3.0,79,0.00,,,0.02,Wunderground v.1.15,2013-06-07 03:06:00,
2013-06-06 22:11:00,56.2,49.8,29.96,North,5,0.0,2.0,79,0.00,,,0.02,Wunderground v.1.15,2013-06-07 03:11:00,
2013-06-06 22:16:00,56.1,49.7,29.97,NNW,348,0.0,2.0,79,0.00,,,0.02,Wunderground v.1.15,2013-06-07 03:16:00,
2013-06-06 22:21:00,55.9,49.1,29.97,NE,35,0.0,3.0,78,0.00,,,0.02,Wunderground v.1.15,2013-06-07 03:21:00,
2013-06-06 22:27:00,55.9,48.8,29.97,NE,38,0.0,3.0,77,0.00,,,0.02,Wunderground v.1.15,2013-06-07 03:27:00,
2013-06-06 22:33:00,55.9,48.8,29.97,NNE,32,0.0,3.0,77,0.00,,,0.02,Wunderground v.1.15,2013-06-07 03:33:00,
2013-06-06 22:38:00,55.9,48.8,29.97,NNE,32,0.0,3.0,77,0.00,,,0.02,Wunderground v.1.15,2013-06-07 03:38:00,
2013-06-06 22:44:00,55.9,48.8,29.97,NNE,32,0.0,0.0,77,0.00,,,0.02,Wunderground v.1.15,2013-06-07 03:44:00,
2013-06-06 22:49:00,55.8,49.0,29.97,NNE,32,1.0,1.0,78,0.00,,,0.02,Wunderground v.1.15,2013-06-07 03:49:00,
2013-06-06 22:54:00,55.8,49.7,29.96,NNE,32,1.0,1.0,80,0.00,,,0.02,Wunderground v.1.15,2013-06-07 03:54:00,
2013-06-06 22:59:00,55.7,49.6,29.96,ENE,58,0.0,3.0,80,0.00,,,0.02,Wunderground v.1.15,2013-06-07 03:59:00,
2013-06-06 23:01:00,55.6,49.5,29.96,ENE,58,0.0,0.0,80,0.00,,,0.02,Wunderground v.1.15,2013-06-07 04:01:00,
2013-06-06 23:02:00,55.6,49.5,29.96,NE,55,1.0,1.0,80,0.00,,,0.02,Wunderground v.1.15,2013-06-07 04:02:00,
2013-06-06 23:08:00,55.5,49.4,29.96,NNE,21,0.0,3.0,80,0.00,,,0.02,Wunderground v.1.15,2013-06-07 04:08:00,
2013-06-06 23:13:00,55.4,49.7,29.96,NNE,21,1.0,2.0,81,0.00,,,0.02,Wunderground v.1.15,2013-06-07 04:13:00,
2013-06-06 23:18:00,55.3,48.9,29.96,NE,52,0.0,3.0,79,0.00,,,0.02,Wunderground v.1.15,2013-06-07 04:18:00,
2013-06-06 23:23:00,55.4,48.7,29.96,NE,38,1.0,3.0,78,0.00,,,0.02,Wunderground v.1.15,2013-06-07 04:23:00,
2013-06-06 23:28:00,55.5,48.4,29.96,NE,55,2.0,4.0,77,0.00,,,0.02,Wunderground v.1.15,2013-06-07 04:28:00,
2013-06-06 23:33:00,55.5,48.1,29.96,NNE,32,1.0,3.0,76,0.00,,,0.02,Wunderground v.1.15,2013-06-07 04:33:00,
2013-06-06 23:38:00,55.6,47.8,29.96,NNE,31,1.0,5.0,75,0.00,,,0.02,Wunderground v.1.15,2013-06-07 04:38:00,
2013-06-06 23:43:00,55.6,47.8,29.96,NNE,28,1.0,4.0,75,0.00,,,0.02,Wunderground v.1.15,2013-06-07 04:43:00,
2013-06-06 23:48:00,55.5,48.1,29.96,NNE,24,0.0,4.0,76,0.00,,,0.02,Wunderground v.1.15,2013-06-07 04:48:00,
2013-06-06 23:53:00,55.4,48.3,29.96,NNE,24,0.0,1.0,77,0.00,,,0.02,Wunderground v.1.15,2013-06-07 04:53:00,
2013-06-06 23:59:00,55.2,48.8,29.96,NNE,20,0.0,1.0,79,0.00,,,0.02,Wunderground v.1.15,2013-06-07 04:59:00,